Location: Unspecified
(0.0000°N, 0.0000°E)
Time: 10:47:57
(UTC+00:00)

Vanguard 2 - Pass Details

Date: 16 October 2022
Orbit: 553 x 2933 km, 32.9° (Epoch: 29 November)

Event Time Altitude Azimuth Distance (km) Brightness Sun altitude
Rises 18:52:46 0° 283° (WNW) 6,381 13.5 -16.6°
Reaches altitude 10° 18:57:14 10° 275° (W) 5,558 13.1 -17.7°
Maximum altitude 19:12:57 40° 213° (SSW) 3,813 11.3 -21.6°
Drops below altitude 10° 19:27:38 10° 148° (SSE) 5,161 11.5 -25.2°
Sets 19:31:41 0° 140° (SE) 5,896 11.8 -26.2°
